GEFSSE_500_meanwind_000.txt.gz
Wind_Speed
10 9 10 11 12 13 13 14 14 12 9 8 9 8 9 9 7 6 5 5 4 8 21 26 24 20 18 16 12 11 10 6 4 4 2 1 1 2 3 4 11 10 12
9 11 12 12 11 13 14 14 13 11 9 9 10 10 10 9 8 6 5 3 5 3 9 16 26 20 18 15 12 12 12 9 6 6 3 1 2 1 0 2 3 4 8
8 10 11 12 12 14 15 16 14 12 9 9 10 11 9 8 7 7 6 4 2 3 6 2 11 17 14 10 10 10 10 9 7 7 5 2 2 3 2 2 3 5 7
7 9 11 12 12 13 15 17 16 13 9 9 10 10 9 9 7 7 7 5 1 2 4 5 3 12 11 6 4 4 6 7 5 5 5 4 3 3 3 3 4 5 6
5 8 10 13 13 13 14 16 16 13 10 9 9 9 9 9 8 7 7 5 3 4 4 3 3 5 7 7 6 6 7 8 6 6 5 4 5 5 4 4 6 7 6
4 6 9 12 14 14 15 15 16 15 11 9 10 9 8 9 9 8 7 6 5 4 5 5 6 7 7 7 7 8 9 9 8 7 8 9 10 11 11 7 9 9 9
5 6 8 12 13 14 14 15 16 15 12 10 11 10 8 8 9 9 9 7 7 8 8 7 8 9 9 9 8 8 10 10 8 10 12 13 14 15 15 10 8 9 10
7 9 11 12 11 12 12 13 15 17 15 13 12 11 9 8 8 8 10 9 9 12 13 12 12 12 11 11 10 10 11 11 11 11 12 13 13 13 14 10 8 9 9
8 10 12 11 10 10 9 10 13 16 15 14 14 13 11 10 10 9 11 12 12 13 15 17 16 14 13 13 12 12 12 13 13 12 11 11 10 9 11 10 12 11 10
7 9 11 11 12 12 10 9 11 16 16 14 15 14 13 12 11 10 11 13 13 14 16 18 18 16 15 15 14 14 14 14 14 13 12 10 10 9 9 12 14 11 11
8 10 12 12 13 12 10 9 11 16 17 15 15 16 14 13 12 11 10 12 13 14 15 16 16 17 16 16 16 16 16 15 15 14 13 13 11 11 11 14 11 10 11
10 12 13 13 12 14 11 9 12 16 18 15 14 15 14 13 13 12 9 10 13 13 14 14 14 17 18 19 20 18 18 17 17 15 14 13 12 13 14 14 12 12 12
12 14 16 14 16 16 12 10 11 14 17 16 15 14 13 13 13 11 9 9 12 13 14 15 13 15 17 19 18 16 17 18 18 17 14 14 14 14 16 17 15 14 14
15 16 16 15 16 18 16 13 12 13 14 17 16 13 10 11 13 12 10 9 10 12 14 15 12 11 13 15 16 15 15 15 15 15 13 14 15 16 16 17 17 16 17
16 18 18 18 17 19 19 16 19 17 17 18 18 14 9 10 12 13 11 10 9 13 15 15 15 10 9 11 11 14 17 13 12 12 12 14 16 16 15 16 16 16 18
16 19 20 19 19 21 20 18 22 24 22 16 15 15 12 10 13 14 13 11 10 13 15 15 15 10 7 9 10 11 14 15 12 12 12 13 14 14 14 14 17 18 17
17 20 22 21 19 20 21 21 24 21 13 9 14 15 14 12 13 15 15 13 11 14 13 14 16 12 8 10 11 11 11 12 12 12 13 14 15 15 13 14 17 19 20
17 19 23 23 20 20 20 22 21 16 15 16 15 14 13 11 13 15 16 15 13 14 14 14 14 12 8 9 9 11 11 10 10 11 13 15 17 17 16 15 15 17 18
15 17 19 21 21 20 21 21 18 13 16 15 13 15 12 12 14 16 16 16 15 15 14 15 14 14 8 7 6 6 7 9 10 12 14 15 17 18 16 14 14 14 13
17 16 17 19 21 21 21 19 16 16 19 17 17 17 13 13 14 14 14 17 16 16 17 18 16 15 11 9 7 3 5 7 8 11 13 15 17 18 17 16 15 14 14
17 16 17 17 19 20 19 18 18 20 20 19 21 17 13 12 13 13 14 16 17 18 18 18 15 18 13 9 9 6 6 6 7 8 9 12 15 18 19 19 18 18 17
19 18 18 18 18 17 18 18 20 23 23 21 20 21 18 17 17 17 17 20 20 19 20 21 17 16 15 13 11 9 9 8 8 7 7 9 13 15 18 19 19 20 21
20 19 19 20 18 18 20 21 23 25 24 21 21 23 22 23 23 21 22 22 22 22 22 21 21 20 20 17 13 11 12 11 9 9 10 11 11 12 14 15 17 18 19
22 21 21 20 20 21 22 24 28 28 24 21 21 22 23 27 28 27 26 27 26 26 27 23 20 21 21 19 16 14 14 14 12 13 13 13 12 13 14 14 16 17 18
23 23 22 20 20 22 22 25 26 23 21 22 24 25 26 28 28 30 31 32 32 31 32 29 26 24 23 22 19 19 19 18 17 17 16 17 17 16 16 15 16 16 17
24 23 24 21 20 21 22 21 19 18 18 22 27 29 28 28 27 28 33 34 34 33 34 31 30 27 25 24 23 23 24 21 19 20 18 17 19 20 19 17 17 17 17

GEFSSE_500_meanwind_006.txt.gz
Wind_Speed
8 9 10 10 10 10 9 7 8 8 7 6 7 7 7 6 5 5 5 5 6 8 11 14 18 22 20 17 15 14 12 10 8 7 6 6 4 3 3 7 12 13 13
5 6 8 9 10 10 9 8 8 7 6 7 8 8 8 7 6 5 5 6 7 7 8 12 18 21 21 20 17 16 15 11 10 9 8 7 5 3 2 4 8 12 14
4 5 8 9 10 10 10 8 7 7 6 7 8 8 8 8 6 4 5 6 6 5 3 6 16 21 22 21 19 18 18 15 12 11 9 7 6 5 4 3 4 6 10
2 4 8 10 10 11 10 7 6 6 6 7 9 9 8 7 6 4 4 5 3 2 3 3 11 20 23 21 19 19 20 18 14 12 9 7 6 6 5 5 4 4 7
0 3 7 9 10 11 10 7 5 6 6 8 10 10 8 6 5 4 4 3 2 2 0 3 5 13 18 16 14 13 15 18 15 13 10 8 6 5 5 5 6 7 8
1 3 6 10 11 11 10 8 7 6 7 9 10 11 9 7 5 5 4 3 4 5 4 4 7 10 11 12 11 11 12 13 12 12 10 8 6 6 7 6 7 9 9
1 3 6 10 12 12 11 9 8 8 9 10 11 11 10 8 6 6 6 6 7 8 7 6 7 8 9 9 10 11 12 11 10 9 8 6 5 7 9 9 10 11 12
2 2 5 9 12 12 12 9 8 9 11 12 12 11 10 9 8 7 7 8 9 9 10 9 8 9 9 9 10 11 12 13 11 10 9 8 7 8 9 11 12 12 12
2 2 5 8 10 11 11 9 8 9 11 12 12 11 10 9 8 9 9 10 10 10 10 12 12 10 10 10 11 11 13 14 13 12 11 9 8 8 9 12 12 12 11
2 3 6 7 8 10 10 9 9 10 12 14 13 12 11 10 9 10 11 11 12 12 12 12 13 14 14 13 14 14 14 15 15 14 12 11 9 8 9 12 14 13 11
2 3 5 6 8 10 11 10 10 11 13 15 15 13 12 11 11 11 12 11 12 13 13 12 12 15 17 17 17 17 17 17 16 15 13 12 11 10 9 12 14 14 13
3 4 5 7 9 10 12 12 12 12 14 15 16 15 14 13 12 13 13 12 11 11 11 10 11 13 15 17 18 19 19 19 18 16 14 13 13 12 12 13 15 17 15
4 6 8 8 8 10 13 13 12 13 14 16 17 17 17 15 14 14 14 13 11 11 11 11 12 12 13 15 17 19 20 20 19 18 16 15 15 14 14 15 17 19 16
6 7 10 9 9 11 13 14 12 13 15 18 19 18 17 15 14 14 14 13 12 11 11 12 12 12 12 13 16 20 21 22 20 19 18 18 17 16 15 17 18 18 17
8 9 11 11 12 14 15 15 15 14 16 18 19 17 15 15 14 15 15 13 12 11 11 12 11 11 11 11 13 16 20 21 20 19 18 17 16 15 16 18 19 17 17
13 14 14 14 16 16 17 17 16 16 17 17 17 15 15 14 13 14 16 14 13 14 13 13 12 11 11 12 12 13 16 20 20 18 16 15 14 14 16 17 20 20 19
17 17 17 17 18 18 17 18 18 18 18 17 16 15 15 14 13 13 15 15 14 15 15 13 12 12 13 13 13 14 15 17 19 18 17 16 15 14 16 17 17 19 19
19 18 18 20 20 20 20 19 19 20 19 17 16 16 15 14 13 12 12 13 15 15 14 12 11 12 13 13 13 14 15 16 16 16 17 17 16 16 17 18 17 18 18
20 19 19 21 22 22 22 21 20 21 20 17 17 18 18 16 14 13 12 13 15 16 14 12 12 12 13 13 13 13 14 16 15 15 15 17 18 18 18 18 17 18 18
20 20 21 22 24 24 23 21 21 21 21 21 19 19 20 19 17 16 15 14 15 16 16 14 13 13 13 13 13 12 12 15 15 14 14 16 19 20 20 19 18 17 16
21 22 23 24 25 25 24 22 22 21 22 24 22 20 22 22 21 18 17 15 15 15 16 15 15 15 15 14 14 12 10 11 13 13 14 16 18 21 22 21 19 18 17
23 25 25 25 25 25 25 25 24 24 24 25 25 24 24 25 24 21 19 18 16 14 15 16 17 18 17 16 15 14 12 10 11 11 12 15 17 19 21 22 21 20 18
25 27 26 26 27 27 28 28 28 28 29 30 30 30 28 28 27 25 22 21 19 16 16 17 19 21 19 17 17 16 13 12 11 10 11 12 14 16 18 21 22 21 20
25 27 27 29 30 29 30 31 31 31 32 32 31 31 30 29 28 25 21 21 20 19 18 18 20 22 22 20 20 18 15 14 13 12 11 11 12 14 15 18 20 20 20
27 29 30 32 31 31 31 31 32 32 33 33 31 30 28 27 27 25 21 21 21 22 23 22 22 24 23 24 24 22 19 17 16 14 13 13 13 14 14 15 16 17 18
28 30 30 30 30 30 30 30 31 32 32 31 29 27 25 24 24 26 25 23 24 26 28 27 27 28 26 25 26 26 23 22 20 17 16 16 16 16 15 15 16 16 16

GEFSSE_500_meanwind_012.txt.gz
Wind_Speed
3 6 9 10 11 12 11 10 9 9 8 7 8 10 10 9 7 5 4 5 6 6 9 12 16 19 20 19 15 13 12 10 8 6 5 5 7 8 8 9 11 12 11
2 4 8 11 12 12 11 9 9 9 9 9 8 9 11 10 9 6 5 5 5 6 8 11 16 20 23 23 19 15 14 12 10 8 7 6 6 7 7 7 10 12 13
2 3 7 10 12 12 11 9 8 9 10 9 9 10 11 10 9 7 6 6 6 5 6 8 13 20 23 25 22 18 16 13 11 10 9 8 6 6 6 6 8 11 12
3 3 6 10 11 12 11 9 8 9 10 10 10 11 11 11 9 7 7 6 5 5 5 4 7 16 22 25 24 20 18 15 13 12 10 9 7 6 5 5 6 8 9
5 4 6 9 10 11 10 9 8 8 9 11 11 12 12 11 10 8 8 7 5 4 4 3 2 11 20 25 24 22 20 18 16 14 12 10 7 7 6 5 4 5 5
7 6 6 8 9 10 10 9 8 8 9 10 12 12 12 11 10 9 8 7 6 4 3 3 1 5 16 23 24 22 21 21 20 18 15 11 8 8 5 4 3 3 3
8 6 6 7 9 9 9 9 8 9 9 11 12 13 12 11 10 10 9 7 6 5 3 2 2 2 8 18 21 21 20 20 20 18 14 11 9 7 5 5 4 3 3
9 7 6 7 8 8 9 9 9 9 10 11 14 15 14 13 11 10 9 8 6 6 5 3 2 2 5 8 12 13 14 14 16 13 11 10 7 6 5 5 6 5 5
9 8 8 8 8 9 9 9 9 10 11 12 15 16 16 14 12 10 10 9 7 7 7 7 7 6 6 7 9 10 11 12 12 11 9 7 5 4 5 6 7 7 7
10 9 8 8 8 9 10 10 10 11 12 13 16 18 17 15 13 12 11 9 8 8 9 10 10 11 10 10 11 12 13 13 13 13 11 8 6 6 6 8 8 9 8
10 9 8 9 9 9 10 11 12 11 12 14 16 18 18 15 14 13 12 10 10 9 9 11 13 14 14 14 14 15 16 15 15 14 13 11 9 8 8 8 9 9 9
10 9 10 10 10 10 11 13 13 12 12 14 16 18 18 17 16 14 13 12 10 10 9 10 13 16 17 18 18 18 18 17 17 17 16 14 12 11 10 9 9 10 11
10 10 11 12 12 12 13 14 15 14 13 14 16 19 19 18 16 15 14 13 11 10 9 9 12 15 18 20 20 20 20 21 21 21 20 18 15 13 12 11 10 10 12
12 13 13 13 13 13 14 15 16 16 16 16 18 20 19 17 16 16 15 14 12 11 10 9 11 14 17 18 18 19 21 22 23 22 23 21 18 15 14 13 12 12 14
14 15 15 16 15 15 15 15 16 16 16 17 18 19 19 17 16 17 16 14 13 12 11 10 11 13 15 17 17 18 19 21 22 22 22 21 19 17 16 14 13 13 15
16 16 17 17 17 16 16 16 16 16 17 18 18 19 18 17 17 17 16 14 13 13 12 12 12 12 14 16 17 17 18 19 21 22 22 21 19 17 16 15 14 14 16
16 16 16 17 17 17 17 18 18 18 18 18 19 19 18 17 18 19 17 15 13 13 13 13 13 13 14 15 16 16 15 15 16 18 19 19 19 16 14 14 14 15 17
17 16 14 16 17 17 18 19 19 19 19 19 19 20 19 18 18 20 20 16 14 13 13 14 15 15 15 15 16 16 14 14 14 15 17 18 18 17 14 13 14 15 17
19 17 15 16 17 18 20 20 20 21 20 21 21 21 21 20 19 20 22 20 16 14 15 16 16 16 16 15 15 15 14 14 14 15 16 17 18 18 16 15 15 15 15
20 19 18 18 19 19 20 21 21 22 22 22 23 23 23 22 22 22 23 23 20 18 17 17 18 17 16 15 14 14 13 13 13 14 15 16 17 18 16 16 16 15 15
19 20 20 19 20 20 21 21 21 23 23 23 24 25 25 24 25 24 24 26 25 22 20 19 19 19 17 15 14 14 13 12 12 13 14 15 16 16 16 17 16 16 15
19 20 20 20 21 21 22 22 22 24 24 24 25 25 26 27 27 27 26 27 28 26 23 21 20 20 18 17 16 15 13 13 11 11 12 13 14 15 15 17 17 16 16
20 20 20 20 21 22 22 22 23 23 24 25 26 27 28 29 29 28 27 27 29 28 25 23 21 22 21 20 19 17 16 14 12 11 11 11 12 13 14 16 17 18 17
22 21 20 21 21 21 21 22 23 23 25 27 28 29 30 31 30 28 27 27 28 28 25 22 23 23 22 21 21 20 19 17 14 12 11 10 9 10 12 14 17 19 19
23 21 20 20 20 20 22 23 24 26 28 30 30 30 31 31 30 29 27 26 26 25 23 22 23 24 22 22 22 22 20 19 18 15 13 11 9 8 9 11 14 17 19
22 20 20 20 21 22 23 24 26 27 29 29 30 30 30 29 28 27 26 25 24 24 23 21 20 21 20 21 22 23 22 21 21 19 16 13 11 9 8 9 10 13 17

GEFSSE_500_meanwind_018.txt.gz
Wind_Speed
7 10 12 14 14 13 12 10 9 9 8 8 7 8 9 8 6 3 3 4 6 8 10 12 13 15 17 17 16 14 13 12 11 14 15 16 17 18 18 17 15 14 13
4 7 10 13 13 12 11 9 9 9 9 9 9 9 10 9 7 4 3 3 5 7 9 11 13 16 19 19 18 15 13 11 9 9 9 10 11 12 13 13 12 13 13
2 4 8 11 12 11 10 9 8 8 9 10 11 11 11 10 7 5 4 4 5 6 8 10 12 16 20 21 20 18 15 12 10 7 5 4 5 7 7 8 10 11 12
2 3 6 10 12 11 9 8 7 8 9 10 12 13 12 10 8 6 5 4 4 5 6 7 9 13 18 21 22 20 18 14 11 9 6 4 3 4 5 6 7 9 10
4 3 5 8 10 10 9 8 7 8 9 11 13 14 13 11 9 7 6 5 4 5 5 6 6 9 13 19 22 22 20 16 13 10 8 7 5 5 5 6 7 7 8
5 3 4 6 9 9 8 8 7 8 10 11 13 14 14 12 11 9 7 6 5 5 5 5 5 5 9 16 19 21 21 19 16 13 11 9 8 8 8 7 6 7 7
5 3 3 4 6 7 8 8 7 8 9 10 12 14 15 14 12 10 8 7 7 6 5 5 4 3 5 12 17 19 20 19 18 16 14 13 11 10 10 9 7 7 7
5 5 4 3 5 6 7 8 8 8 9 10 12 14 15 14 12 11 10 8 7 7 6 5 4 2 3 8 14 18 19 19 19 18 17 15 14 12 11 10 9 8 7
7 6 5 4 4 5 6 7 8 9 10 11 12 13 15 14 13 12 11 9 8 7 6 6 5 3 1 5 10 15 18 19 18 18 17 16 13 11 10 10 10 9 8
7 8 7 6 5 5 6 7 8 9 9 10 12 13 14 13 12 12 11 10 8 8 7 7 7 6 5 4 7 10 13 14 13 12 12 11 9 7 7 8 9 10 9
8 9 9 8 7 6 6 7 8 8 9 9 11 12 13 13 12 12 12 11 9 8 8 8 8 9 8 7 7 9 10 10 10 11 11 10 8 7 8 8 8 9 10
9 10 11 11 10 8 8 9 9 9 9 8 9 11 13 13 12 12 13 12 10 8 8 8 8 10 11 11 11 12 12 11 11 12 13 13 11 10 10 10 9 9 10
10 12 12 13 12 11 10 11 11 10 9 8 8 10 11 12 12 13 13 13 11 9 8 8 8 9 11 14 15 15 15 14 15 16 16 16 15 14 13 12 11 10 10
12 13 14 15 15 14 13 13 12 11 10 9 8 8 10 11 12 14 14 13 12 10 8 8 8 9 11 14 16 17 18 19 20 20 20 20 19 18 16 15 14 12 11
14 15 17 17 17 17 16 15 14 13 11 10 9 8 9 10 10 12 14 14 12 11 9 8 9 10 11 13 15 17 19 21 22 23 24 24 23 22 20 18 17 15 14
15 16 18 19 19 18 17 16 15 14 13 12 10 9 9 9 10 11 12 14 13 11 10 9 10 11 12 13 15 16 18 19 19 21 22 23 23 23 21 20 19 18 17
16 16 16 17 18 17 17 16 14 15 15 13 12 10 9 9 10 12 12 14 15 14 13 12 12 12 13 14 15 16 17 17 18 19 20 21 22 22 21 20 19 19 19
16 17 17 16 15 15 14 15 15 15 14 13 13 12 10 10 11 12 14 14 15 15 14 13 14 14 15 15 16 16 16 16 16 17 18 19 20 21 21 19 18 17 19
17 17 17 16 16 16 15 15 15 16 15 14 14 13 12 12 12 13 14 15 16 16 16 15 14 16 18 18 17 17 16 17 17 17 17 17 17 19 19 19 18 17 18
18 17 17 17 17 17 17 16 16 16 17 16 15 14 14 14 14 15 17 17 18 18 19 18 16 17 19 20 19 18 16 17 17 17 16 16 17 18 18 18 18 17 17
19 18 18 18 18 18 18 18 17 17 17 16 16 15 14 15 16 18 19 20 20 20 21 21 20 19 19 20 21 19 18 16 17 17 16 17 17 18 18 19 19 18 18
20 20 20 20 20 20 20 20 19 16 15 14 15 15 15 17 18 19 21 22 22 23 23 23 23 21 20 20 21 20 19 17 16 16 16 16 17 18 19 19 20 20 20
22 21 22 22 22 22 21 20 18 16 14 14 15 17 18 19 20 21 22 23 24 25 26 26 26 24 21 21 21 21 20 19 17 16 15 15 15 17 18 20 21 22 22
25 24 25 25 24 23 23 20 18 16 15 16 17 19 20 21 22 22 23 24 25 27 27 27 26 25 23 22 22 22 22 21 19 17 16 15 15 16 17 19 21 22 23
28 28 28 27 25 23 21 19 18 17 18 19 20 21 22 22 23 23 23 24 25 27 27 27 27 26 24 23 24 24 24 23 22 20 18 16 15 15 16 18 20 21 22
31 31 30 27 24 21 20 18 17 18 20 21 21 22 22 23 23 23 24 24 25 25 26 27 27 27 25 23 24 25 26 26 24 22 20 18 16 15 15 16 18 18 19